User: anonymous   Login
Location: Banios
(43.0451°N, 0.2335°E)
Time: 02:01:07
(UTC+00:00)
Language:

Vanguard 2 Rocket - Orbit

View from above orbital plane
View from above orbital plane
View from above satellite
View from above satellite

Ground track
Ground track

The orbit data is extracted from the following two-line orbital elements,

1    12U 59001B   21131.54646064 -.00000097  00000-0 -58464-4 0  9990
2    12  32.9018 282.9590 1666407   0.9828 359.3495 11.44398559560143
Epoch (UTC): 11 May 2021 13:06:54
Eccentricity: 0.1666407
inclination: 32.9018°
perigee height: 554 km
apogee height: 3326 km
right ascension of ascending node: 282.9590°
argument of perigee: 0.9828°
revolutions per day: 11.44398559
mean anomaly at epoch: 359.3495°
orbit number at epoch: 56014

The dashed part of the orbit path shows where the satellite is in the earth's shadow,  

DLR